Tracking 29892 objects as of 21-Nov-2024
HD Live streaming from Space Station
objects crossing your sky now

FENGYUN 1C DEB

Track FENGYUN 1C DEB now!
10-day predictions


NORAD ID: 30099
Int'l Code: 1999-025RC
Perigee: 771.1 km
Apogee: 859.6 km
Inclination: 98.6 °
Period: 101.0 minutes
Semi major axis: 7186 km
RCS: 0.039 m2 (small)
Launch date: May 10, 1999
Source: People's Republic of China (PRC)
Launch site: Taiyaun Space Center, China (TSC)

Note: This is SATELLITE DEBRIS
Your satellite tracking list
Your tracking list is empty




NASA's NSSDC Master Catalog

Two Line Element Set (TLE):
1 30099U 99025RC  24325.19724655  .00001117  00000-0  48548-3 0  9993
2 30099  98.5757  40.7990 0061587 297.2098  88.8173 14.25081934926680
Source of the keplerian elements: AFSPC